Location: Hawaiian Village Mobile Home Park
(32.8359°N, 116.9792°W)
Time: 10:35:28
(UTC+00:00)

Cosmos 1184 Rocket - Pass Details

Date: 01 August 2021
Orbit: 399 x 410 km, 81.2° (Epoch: 15 September)

Event Time Altitude Azimuth Distance (km) Brightness Sun altitude
Rises 12:01:15 0° 339° (NNW) 2,329 6.7 -12.2°
Reaches altitude 10° 12:03:25 10° 328° (NNW) 1,467 5.5 -11.9°
Maximum altitude 12:06:13 28° 267° (W) 789 3.6 -11.3°
Enters shadow 12:08:24 14° 211° (SSW) 1,245 4.6 -10.9°
